TimeEDT,TemperatureF,Dew PointF,Humidity,Sea Level PressureIn,VisibilityMPH,Wind Direction,Wind SpeedMPH,Gust SpeedMPH,PrecipitationIn,Events,Conditions,WindDirDegrees,DateUTC
12:15 AM,75.2,69.8,83,29.82,10.0,Calm,Calm,-,0.01,,Scattered Clouds,0,2013-06-26 04:15:00
12:35 AM,75.2,71.6,89,29.81,7.0,Calm,Calm,-,0.01,,Clear,0,2013-06-26 04:35:00
12:55 AM,73.4,69.8,88,29.81,5.0,Calm,Calm,-,N/A,,Clear,0,2013-06-26 04:55:00
1:15 AM,73.4,69.8,88,29.81,5.0,Calm,Calm,-,N/A,,Clear,0,2013-06-26 05:15:00
1:35 AM,73.4,69.8,88,29.80,5.0,Calm,Calm,-,N/A,Rain,Light Rain,0,2013-06-26 05:35:00
1:55 AM,73.4,69.8,88,29.80,4.0,Calm,Calm,-,N/A,,Clear,0,2013-06-26 05:55:00
2:15 AM,73.4,69.8,88,29.80,4.0,Calm,Calm,-,N/A,,Clear,0,2013-06-26 06:15:00
2:35 AM,75.2,69.8,83,29.80,10.0,Calm,Calm,-,N/A,,Clear,0,2013-06-26 06:35:00
2:55 AM,75.2,68.0,78,29.81,10.0,West,4.6,-,N/A,,Scattered Clouds,270,2013-06-26 06:55:00
3:15 AM,75.2,68.0,78,29.81,10.0,WNW,5.8,-,N/A,,Mostly Cloudy,290,2013-06-26 07:15:00
3:35 AM,75.2,66.2,73,29.81,10.0,Calm,Calm,-,N/A,,Scattered Clouds,0,2013-06-26 07:35:00
3:55 AM,73.4,66.2,78,29.82,10.0,Calm,Calm,-,N/A,,Clear,0,2013-06-26 07:55:00
4:15 AM,73.4,66.2,78,29.82,10.0,WSW,5.8,-,N/A,,Clear,250,2013-06-26 08:15:00
4:35 AM,73.4,66.2,78,29.82,10.0,Calm,Calm,-,N/A,,Clear,0,2013-06-26 08:35:00
4:55 AM,73.4,66.2,78,29.82,10.0,WSW,3.5,-,N/A,,Clear,250,2013-06-26 08:55:00
5:15 AM,73.4,66.2,78,29.83,10.0,Calm,Calm,-,N/A,,Scattered Clouds,0,2013-06-26 09:15:00
5:35 AM,73.4,66.2,78,29.83,10.0,Calm,Calm,-,N/A,,Scattered Clouds,0,2013-06-26 09:35:00
5:55 AM,73.4,64.4,73,29.84,10.0,Calm,Calm,-,N/A,,Clear,0,2013-06-26 09:55:00
6:15 AM,71.6,66.2,83,29.85,10.0,WSW,3.5,-,N/A,,Clear,240,2013-06-26 10:15:00
6:35 AM,75.2,64.4,69,29.85,10.0,West,4.6,-,N/A,,Clear,270,2013-06-26 10:35:00
7:45 AM,75.2,64.4,69,29.83,10.0,SW,5.8,-,N/A,,Partly Cloudy,230,2013-06-26 11:45:00
8:45 AM,78.8,66.2,65,29.85,10.0,Calm,Calm,-,N/A,,Partly Cloudy,0,2013-06-26 12:45:00
9:45 AM,80.6,64.4,58,29.85,10.0,WNW,9.2,-,N/A,,Partly Cloudy,290,2013-06-26 13:45:00
10:45 AM,80.6,64.4,58,29.85,10.0,West,8.1,-,N/A,,Mostly Cloudy,260,2013-06-26 14:45:00
11:45 AM,80.6,66.2,61,29.86,10.0,West,9.2,-,N/A,,Mostly Cloudy,270,2013-06-26 15:45:00
12:45 PM,80.6,66.2,61,29.86,10.0,WSW,6.9,-,N/A,,Mostly Cloudy,240,2013-06-26 16:45:00
1:45 PM,82.4,68.0,62,29.86,10.0,WSW,8.1,-,N/A,,Mostly Cloudy,250,2013-06-26 17:45:00
2:45 PM,82.4,68.0,62,29.85,10.0,SW,5.8,-,N/A,,Mostly Cloudy,230,2013-06-26 18:45:00
3:45 PM,84.2,68.0,58,29.82,10.0,West,6.9,-,N/A,,Mostly Cloudy,260,2013-06-26 19:45:00
4:45 PM,84.2,64.4,51,29.81,10.0,West,8.1,18.4,N/A,,Mostly Cloudy,270,2013-06-26 20:45:00
5:45 PM,86.0,64.4,48,29.81,10.0,West,11.5,-,N/A,,Mostly Cloudy,260,2013-06-26 21:45:00
6:45 PM,84.2,64.4,51,29.80,10.0,West,6.9,-,N/A,,Mostly Cloudy,280,2013-06-26 22:45:00
7:45 PM,82.4,68.0,62,29.81,10.0,Calm,Calm,-,N/A,,Mostly Cloudy,0,2013-06-26 23:45:00
8:45 PM,77.0,68.0,74,29.81,10.0,Calm,Calm,-,N/A,,Mostly Cloudy,0,2013-06-27 00:45:00
9:45 PM,73.4,68.0,83,29.82,10.0,Calm,Calm,-,N/A,,Mostly Cloudy,0,2013-06-27 01:45:00
10:55 PM,77.0,68.0,74,29.82,10.0,Calm,Calm,-,N/A,,Mostly Cloudy,0,2013-06-27 02:55:00
11:15 PM,75.2,69.8,83,29.83,10.0,Calm,Calm,-,N/A,,Overcast,0,2013-06-27 03:15:00
11:35 PM,75.2,69.8,83,29.83,10.0,Calm,Calm,-,N/A,,Mostly Cloudy,0,2013-06-27 03:35:00
11:55 PM,75.2,69.8,83,29.83,10.0,Calm,Calm,-,N/A,,Mostly Cloudy,0,2013-06-27 03:55:00